Theta_e
316 316 316 315 315 315 314 314 314 314 314 314 315 315 315 315 316 316 316 316 316 316 316 316 317 317 317 317 317 317 315 306 304 304 298 301 313 322 325 325 326 324 324 301 304 303 300 300 303 304 298 298 297 294 295 296 292 291 285 280 281 280 283 284 287 286 288 288 291 290 290 291 289 291 294 296 295 293 293 294 297 303 310 313 316 322 326 326
315 315 315 315 315 315 314 314 314 314 314 314 314 315 315 315 316 316 316 316 316 316 316 317 317 317 317 317 317 317 312 305 304 300 300 310 326 325 327 325 327 327 317 300 303 301 299 299 300 302 296 296 297 294 295 293 294 287 283 282 282 280 285 286 288 289 290 290 290 291 290 291 291 293 294 293 292 291 293 294 295 296 299 306 317 321 325 325
315 315 315 315 316 315 314 314 314 314 314 314 314 315 315 315 315 316 316 316 316 316 316 317 317 317 317 317 317 316 309 302 301 298 302 322 327 327 326 327 327 325 305 302 302 303 302 301 302 301 295 293 291 293 292 293 293 288 286 283 281 284 286 287 289 290 290 290 291 290 290 290 292 292 294 293 291 290 290 292 295 295 295 297 302 319 324 323
315 315 315 315 315 314 314 314 314 314 314 314 314 315 315 315 316 316 316 316 316 316 316 317 317 317 317 317 317 312 306 296 295 299 302 321 328 327 326 330 325 319 309 305 305 305 304 304 302 298 290 288 289 291 290 291 290 289 286 283 285 286 288 289 289 290 291 290 290 289 289 289 291 291 293 292 291 289 289 290 294 295 295 296 301 319 323 323
315 315 314 314 314 314 315 314 314 314 314 314 314 315 315 315 315 316 316 316 316 316 317 317 317 317 317 317 316 308 301 288 294 301 304 327 329 327 330 327 328 313 309 308 304 302 302 301 300 292 291 290 288 288 290 290 292 288 287 285 288 288 288 292 292 290 289 291 288 287 289 290 292 292 292 291 289 288 291 295 293 294 294 298 302 314 319 321
315 315 314 314 314 314 314 314 314 314 314 314 314 315 315 315 315 315 316 316 316 317 317 317 317 317 317 316 308 306 295 283 299 301 321 328 329 330 330 328 327 311 306 303 302 301 295 295 292 291 288 287 290 289 292 291 293 287 286 286 288 290 291 291 291 292 290 289 289 288 290 291 289 291 289 291 290 292 295 295 295 295 295 299 307 311 313 317
315 315 314 314 314 314 314 314 314 314 314 314 314 314 314 315 315 315 315 316 316 317 317 317 318 318 317 313 305 301 298 299 304 305 320 329 331 330 329 330 324 308 305 303 302 300 296 294 292 292 288 287 289 290 292 293 291 288 290 288 293 292 292 293 292 291 289 290 291 290 292 291 290 290 292 290 293 295 295 294 294 294 296 301 303 308 312 315
315 314 314 314 314 314 313 314 314 313 313 314 314 314 315 315 315 315 315 316 316 317 317 318 318 318 314 305 306 298 295 298 303 306 327 329 326 329 326 318 311 306 304 304 303 300 298 295 294 292 289 289 292 292 293 292 290 292 290 290 292 293 293 293 292 290 289 289 290 290 290 290 289 290 290 290 293 295 296 294 293 293 294 295 303 309 310 313
315 314 314 314 314 313 314 313 313 313 314 314 314 314 315 315 315 315 315 316 316 317 317 318 318 317 314 304 301 292 292 300 306 311 314 314 311 309 308 306 309 305 304 303 303 302 298 295 296 295 291 290 293 293 292 291 287 290 292 293 292 293 293 293 292 290 291 292 289 291 289 288 288 290 290 291 293 295 294 294 294 293 294 293 295 305 311 311
314 314 314 314 313 313 313 313 313 314 314 314 314 314 314 315 314 315 315 315 316 317 317 317 318 316 308 303 293 290 299 302 306 312 314 310 308 308 306 306 307 305 305 303 302 300 299 298 298 297 294 292 294 293 293 291 291 294 293 293 292 293 292 293 293 291 291 291 291 292 290 292 291 291 287 289 291 292 293 294 294 293 293 292 294 296 307 311
314 314 314 314 313 313 313 313 313 314 314 314 314 314 315 314 314 314 315 315 316 317 317 317 318 313 306 299 293 291 304 306 308 306 311 309 308 306 305 305 305 306 304 302 302 301 301 300 299 296 296 294 295 292 293 293 295 294 294 292 291 291 292 292 291 292 292 295 289 292 293 290 289 290 290 292 295 294 292 292 292 292 291 292 293 294 297 305
314 314 314 313 313 313 313 313 313 314 314 314 314 314 314 314 314 315 315 315 316 316 316 316 316 306 304 301 294 296 308 306 309 307 310 308 306 306 306 306 306 305 304 302 303 302 301 300 299 299 293 297 291 293 294 295 295 294 294 290 290 291 293 292 292 293 293 294 295 294 290 287 287 290 293 293 292 293 292 292 292 292 291 293 292 294 296 299
314 314 314 314 313 313 313 313 314 314 314 313 313 314 314 314 314 314 315 315 316 316 316 317 314 307 302 296 298 305 309 311 312 309 308 309 309 308 308 306 306 306 306 304 302 304 300 299 300 297 296 296 293 291 295 295 294 294 291 291 290 288 289 292 294 293 293 295 294 293 282 281 288 292 294 295 292 291 291 291 293 291 291 291 293 293 294 297
314 314 314 313 313 312 313 313 314 313 313 313 314 313 313 314 314 314 315 315 316 316 317 318 306 304 301 296 304 308 309 310 307 307 305 310 307 305 304 305 307 306 307 305 306 305 304 300 301 298 298 297 293 297 295 292 292 290 290 287 284 284 284 291 293 293 294 295 293 293 285 283 287 292 295 294 291 291 291 292 293 291 291 291 291 292 294 294
314 314 314 314 313 313 313 314 313 313 313 313 313 313 313 312 313 314 315 314 315 315 316 313 305 300 294 298 306 310 327 308 307 306 306 306 305 303 304 302 302 304 305 306 304 303 302 299 300 297 293 298 296 293 289 286 286 288 287 282 283 285 286 292 295 294 291 294 293 291 284 283 290 293 295 294 294 292 292 293 292 292 292 292 292 293 294 295
314 314 314 314 313 313 313 313 313 313 313 313 313 312 312 312 313 314 314 314 315 316 309 305 305 301 296 294 304 317 304 302 303 305 303 306 304 303 304 301 300 301 302 301 304 306 300 301 297 294 296 294 289 285 283 284 282 284 285 283 284 284 285 288 292 292 294 293 292 292 287 286 290 293 296 295 294 292 291 292 293 294 295 296 297 297 297 297
313 314 314 313 313 313 313 313 313 313 312 312 311 311 311 311 313 313 315 315 314 313 308 303 305 305 294 301 306 299 298 300 302 301 303 304 305 303 301 300 301 299 297 299 300 300 299 298 296 295 291 289 287 288 284 278 280 279 283 284 284 285 286 286 291 293 293 292 290 290 288 288 291 294 294 294 293 294 294 294 295 296 297 297 298 299 299 299
313 313 313 313 313 313 313 313 313 313 312 311 310 309 308 311 314 312 310 310 310 310 307 308 299 296 291 298 296 296 301 299 301 302 302 302 303 302 301 299 299 297 295 297 298 296 297 295 291 290 286 285 288 284 282 280 284 282 283 283 285 285 285 287 286 291 293 292 290 290 289 289 291 292 292 294 296 296 295 295 296 296 297 298 298 298 299 299
313 313 313 313 313 313 313 313 313 312 310 309 308 309 310 312 307 304 306 308 299 294 292 296 295 288 286 295 299 301 302 303 302 302 302 302 304 301 301 299 296 297 297 292 297 295 292 289 288 284 284 284 287 287 286 289 287 286 286 285 285 284 285 286 289 293 293 290 289 288 288 288 290 290 293 295 296 295 295 296 296 296 297 297 297 298 298 298
312 312 313 313 313 313 312 312 312 311 310 306 303 303 299 297 292 292 296 300 296 295 296 295 299 299 299 300 300 304 306 303 301 301 302 301 308 299 299 297 296 295 292 291 292 292 293 284 285 285 285 288 289 290 291 291 290 289 289 288 286 286 287 289 289 293 294 291 288 290 288 287 288 290 291 294 295 295 294 294 294 295 295 296 296 297 297 297
313 312 313 313 312 312 312 311 311 310 307 305 302 298 295 294 289 288 295 297 297 297 298 298 300 299 298 300 301 301 299 299 299 298 302 304 300 300 295 296 292 292 291 292 292 295 291 286 287 289 290 291 291 292 292 291 291 290 288 286 286 287 285 289 290 292 294 291 286 288 288 288 288 290 292 294 294 292 293 293 293 294 295 295 295 296 296 298
312 312 312 312 312 311 311 310 310 309 304 302 301 298 300 299 302 302 298 292 299 298 298 299 300 299 301 302 304 302 298 296 296 296 299 303 298 297 295 294 292 291 291 291 290 288 285 288 291 293 294 293 292 291 291 290 290 288 287 286 284 285 287 290 290 292 293 292 287 288 287 288 288 291 293 293 293 293 294 294 293 294 294 295 295 296 296 297
312 312 312 312 311 310 309 309 309 307 304 300 300 301 301 304 304 305 302 295 293 298 298 298 298 296 298 301 301 302 295 293 293 296 299 302 296 296 294 292 289 291 290 290 289 285 284 283 290 293 292 291 290 290 290 289 288 287 286 284 283 286 285 283 290 291 293 292 288 289 287 286 288 291 291 293 293 293 293 294 294 295 294 294 295 296 296 296
311 311 311 311 311 310 309 308 307 305 301 302 301 303 305 303 305 306 300 292 291 296 298 298 299 299 298 299 302 299 296 296 295 296 302 299 295 297 294 294 290 289 289 289 291 288 287 291 294 292 291 291 290 288 289 287 286 287 287 286 284 286 287 287 287 290 290 290 290 287 283 283 285 287 289 292 294 293 293 293 294 295 295 296 296 297 297 297
311 311 311 311 310 309 308 307 303 302 303 302 301 305 304 306 307 304 298 291 292 293 302 299 301 299 299 305 300 299 297 297 296 298 300 300 296 295 295 296 293 289 289 290 288 287 288 292 295 291 290 290 289 288 288 288 285 285 287 288 288 288 288 288 288 288 283 281 287 288 278 280 282 288 289 291 291 292 293 293 293 294 295 296 295 296 297 298
310 310 310 310 309 308 307 302 302 302 302 302 306 306 306 305 303 301 292 284 284 289 296 293 301 296 304 300 299 297 296 294 299 298 302 303 305 299 295 292 294 289 290 291 290 288 291 293 292 291 289 288 287 288 289 289 284 282 285 289 290 289 288 287 286 286 278 279 286 289 279 277 279 286 288 289 289 290 291 292 293 293 294 295 295 296 296 297
310 310 309 309 308 307 302 300 301 303 300 302 306 306 307 307 306 304 297 278 276 291 291 296 298 298 303 300 298 298 285 288 298 301 301 306 301 304 295 290 292 293 294 290 285 286 293 291 289 289 288 287 286 286 290 289 286 283 287 290 290 288 287 287 287 285 280 286 288 286 281 279 278 282 289 290 289 289 290 291 292 293 294 294 295 296 296 297
310 309 309 308 307 306 302 302 302 301 302 306 308 308 308 305 305 301 284 274 275 292 292 293 299 304 302 299 297 294 294 296 292 298 302 302 303 298 294 291 289 290 292 287 281 286 291 290 289 290 287 286 287 289 291 290 287 287 291 290 288 288 288 287 285 283 283 282 277 283 286 279 277 280 288 289 286 287 288 290 291 292 293 294 295 296 296 297
309 309 308 308 307 307 306 301 300 299 303 306 308 309 309 305 302 293 277 274 288 291 304 295 307 301 297 299 295 294 294 296 291 296 300 302 302 299 290 293 290 291 291 290 285 286 292 292 293 290 287 286 290 290 290 290 285 288 291 291 289 288 288 287 282 283 281 275 276 281 284 277 276 280 284 287 285 286 288 290 291 292 293 294 294 295 297 297
308 308 307 307 306 302 300 302 300 303 307 308 309 309 307 300 293 285 278 273 293 286 297 297 296 293 294 291 290 294 293 294 296 296 298 296 299 299 297 298 292 289 289 289 288 289 292 296 298 293 291 293 292 292 291 291 291 293 288 287 284 283 282 282 280 278 277 268 277 283 283 278 277 280 283 283 285 287 289 290 291 292 293 294 295 295 296 297
307 307 307 307 301 302 301 295 299 303 306 308 309 305 302 294 282 271 273 282 293 291 292 292 291 294 290 289 286 292 291 291 294 294 292 296 295 294 293 293 291 285 284 286 284 289 290 292 294 293 298 294 293 292 293 292 291 289 285 283 280 280 280 278 277 276 268 268 275 280 282 282 275 278 283 287 290 290 290 289 290 291 292 293 294 295 296 297
307 306 306 304 305 306 298 298 304 304 306 309 304 299 298 288 281 277 276 292 283 285 287 287 291 291 290 290 289 290 288 289 292 292 290 289 288 288 287 284 283 280 279 280 282 285 288 289 291 293 300 294 290 288 290 292 291 289 284 283 279 272 271 268 273 271 267 274 281 280 282 279 278 279 286 289 290 291 292 291 291 291 292 293 294 295 296 297
306 306 306 306 305 302 303 304 306 305 307 306 299 294 284 275 276 277 282 285 282 288 288 292 290 290 291 287 287 290 290 288 291 292 293 292 288 289 291 290 288 286 279 281 281 280 280 285 288 291 292 296 290 286 286 285 288 286 283 279 274 270 265 264 269 272 272 277 279 280 282 278 279 284 289 289 291 292 293 292 293 292 292 293 294 295 296 297
306 305 303 305 305 306 307 308 306 308 305 301 296 292 281 277 278 297 286 284 287 291 291 290 290 288 288 286 289 290 284 289 289 290 291 288 285 284 286 288 290 287 284 282 281 277 271 275 282 287 285 293 291 288 289 286 286 283 285 281 277 270 269 269 272 267 268 274 278 283 278 275 277 281 291 292 293 293 292 293 294 294 294 294 295 295 296 296
305 304 302 302 304 306 307 307 305 307 299 295 287 283 277 277 280 280 282 283 286 290 291 291 288 285 286 285 287 289 289 284 290 288 288 285 285 284 286 286 290 287 283 278 280 281 282 278 284 289 292 292 292 294 295 290 285 285 284 283 279 277 277 274 274 273 276 277 276 279 276 278 281 288 293 292 291 291 293 293 294 293 294 294 294 294 295 296
304 303 303 303 305 307 306 308 305 305 300 291 285 279 277 280 283 285 287 289 290 289 288 287 284 283 281 279 283 286 291 287 287 286 285 287 287 287 290 287 289 289 287 279 281 277 278 277 287 290 293 292 291 293 292 293 279 285 282 278 281 283 281 273 272 278 275 271 272 277 278 279 282 285 291 290 290 290 291 292 292 292 293 293 293 294 295 296
301 303 304 307 310 309 308 308 308 302 296 290 283 279 281 287 287 288 296 291 290 288 283 281 281 285 282 282 281 281 287 289 287 284 283 286 286 288 289 290 291 290 288 287 282 284 279 280 283 289 289 294 293 293 293 293 292 286 281 282 286 288 285 279 270 269 269 267 268 275 276 277 277 273 287 287 287 288 289 290 291 292 292 292 293 294 295 296
300 301 305 306 312 309 308 308 305 298 292 287 282 295 290 289 292 292 292 291 290 288 282 281 285 287 281 280 282 284 286 283 285 283 283 284 283 291 290 289 293 292 292 290 285 285 285 275 281 287 289 292 295 294 291 296 296 290 286 290 281 273 274 275 270 266 267 266 268 275 276 276 277 278 283 283 284 286 288 289 290 291 291 292 293 294 296 297
301 301 302 310 312 309 308 307 302 296 289 285 280 286 290 289 291 292 293 292 291 289 287 284 283 286 283 281 282 283 284 282 284 283 279 285 283 291 291 291 291 291 291 290 286 284 283 276 276 285 288 291 290 290 282 289 297 296 295 288 289 281 274 273 271 275 275 273 273 275 279 275 279 281 285 283 285 286 288 288 289 290 292 292 293 294 295 296
299 300 300 310 311 312 311 307 296 290 287 285 284 283 288 290 291 291 292 293 290 289 286 285 287 285 286 285 284 284 284 285 283 284 284 286 287 292 292 294 290 291 290 291 288 289 282 281 272 278 284 287 282 289 287 289 284 286 286 283 284 282 282 280 278 274 272 271 273 274 273 277 280 286 284 285 286 287 288 288 289 291 292 293 294 294 295 296
298 297 298 308 310 308 306 298 292 290 288 289 287 289 291 291 290 292 293 295 292 295 290 287 285 284 284 284 285 286 284 282 284 284 285 285 286 281 290 293 292 291 292 289 287 284 278 277 277 279 281 280 285 293 292 292 291 288 285 283 282 277 271 270 271 279 279 279 275 275 273 279 283 292 287 286 287 288 289 289 290 291 292 293 294 295 296 296
298 294 297 309 309 307 300 295 290 290 287 287 290 289 290 300 291 292 292 291 293 290 293 289 288 286 284 285 285 284 284 283 284 283 286 284 287 287 291 294 292 292 288 285 286 287 286 280 281 277 280 283 290 292 293 292 292 291 290 284 283 276 271 263 264 269 276 278 280 279 276 279 289 289 288 288 289 289 289 290 290 291 292 293 295 295 296 297
293 296 306 308 308 304 293 285 287 287 291 289 292 293 294 292 291 293 291 291 291 291 289 289 290 289 287 288 286 284 283 282 284 284 285 286 286 290 291 293 291 290 290 286 287 288 297 282 275 279 285 291 291 292 291 292 292 289 288 287 282 276 272 269 269 275 277 278 275 276 274 278 286 289 289 290 290 289 290 290 290 291 293 294 294 295 296 296
293 294 300 308 306 302 295 289 287 286 286 293 291 293 295 292 293 291 290 289 289 290 289 288 290 290 289 288 286 284 286 279 286 287 285 287 288 292 290 291 292 292 288 287 287 288 280 280 281 271 269 274 281 288 288 292 291 284 284 286 284 282 280 279 282 284 278 278 278 275 271 275 282 289 290 289 289 288 289 290 291 291 293 294 294 295 295 296
293 295 295 300 303 303 296 289 289 283 286 288 289 290 291 293 293 293 291 291 292 288 288 288 290 291 288 289 288 289 289 285 281 285 287 287 288 290 290 292 293 291 293 297 300 292 286 284 281 276 274 274 274 274 274 275 283 284 285 285 285 283 279 279 276 277 275 276 276 273 274 280 284 288 288 288 288 288 289 290 292 293 293 293 294 295 295 295
294 291 293 293 296 295 295 294 291 289 286 288 286 288 290 288 293 293 293 292 291 291 289 290 289 289 287 288 285 285 287 288 287 285 286 286 285 289 291 290 292 293 300 307 301 292 285 286 284 279 280 280 281 282 283 285 281 278 281 282 284 284 282 279 279 276 274 275 275 277 278 280 282 284 286 286 287 286 288 289 290 291 293 294 295 295 295 295
295 291 288 290 294 292 291 291 293 292 292 289 285 289 289 288 289 292 293 290 293 292 291 290 290 290 286 286 283 284 285 287 287 288 285 286 286 288 290 290 291 298 305 304 298 285 281 281 281 284 285 286 287 286 288 288 282 281 281 282 284 283 280 279 278 277 280 278 274 278 280 280 281 284 285 286 287 287 288 289 290 292 293 294 295 295 297 295
292 291 293 294 291 286 289 288 293 292 294 291 289 291 288 288 288 287 292 294 292 291 289 289 289 290 286 288 284 281 283 285 283 284 286 287 286 287 289 291 292 297 299 293 296 290 282 280 281 283 282 284 286 288 288 286 285 282 282 279 281 282 280 280 278 281 278 276 275 275 280 281 283 284 286 286 287 287 288 289 291 293 293 294 295 295 294 293
297 292 294 297 292 288 290 292 296 295 293 292 287 290 288 288 288 288 289 290 288 288 290 283 286 287 288 287 286 281 281 280 279 284 284 285 286 285 284 287 292 290 291 289 291 287 284 279 280 281 282 280 285 287 287 285 284 282 281 281 282 280 281 282 282 279 276 275 279 280 282 282 284 285 286 287 288 289 289 291 292 292 293 294 295 293 292 293
294 293 290 292 292 294 290 292 293 292 290 294 289 290 289 288 289 290 290 289 283 287 291 288 286 287 287 287 284 282 283 285 285 282 286 286 285 285 284 286 286 289 291 290 290 290 288 281 289 283 280 280 284 285 284 284 283 280 280 280 283 283 282 282 276 272 273 273 279 282 282 281 285 286 286 288 289 290 290 290 291 292 293 294 293 292 292 293
299 296 296 293 288 287 293 292 293 290 288 289 290 290 290 289 289 289 291 290 290 287 289 288 287 286 288 286 285 287 289 288 288 291 290 288 286 287 287 287 290 289 289 288 288 288 288 281 280 277 276 277 284 282 282 283 284 281 278 281 284 282 280 276 276 270 273 276 279 281 280 280 285 287 288 288 288 288 288 290 291 292 293 294 293 292 293 293
299 299 295 291 287 293 292 291 288 289 288 288 290 290 290 290 290 290 286 290 291 291 290 290 287 289 286 286 287 289 293 291 292 293 294 294 293 290 290 292 291 291 287 287 287 288 284 282 278 273 276 271 281 283 282 284 283 281 282 283 284 279 276 275 275 277 279 277 280 278 279 284 286 288 286 286 287 288 289 290 291 292 294 294 293 293 294 294
Wind_Speed
18 17 17 16 16 15 14 13 13 13 13 13 13 14 15 15 15 16 16 16 16 16 16 16 15 15 15 15 16 15 15 5 5 4 4 3 4 6 5 2 0 1 4 1 3 6 3 5 8 7 3 1 2 1 1 1 1 2 1 4 1 2 0 3 3 3 2 1 7 2 2 4 6 5 5 2 1 1 4 3 3 4 1 1 4 3 3 5
18 18 17 16 16 15 14 14 14 14 13 13 14 14 15 15 15 15 16 16 16 16 16 15 15 14 14 14 15 14 11 2 4 3 1 2 4 5 4 1 2 3 3 3 7 5 5 8 4 5 3 1 2 0 0 0 0 2 2 1 2 3 4 3 3 6 1 7 6 2 3 1 5 1 3 5 7 8 10 6 4 7 1 1 1 3 3 7
19 18 18 17 16 15 15 14 13 13 13 13 13 14 14 15 15 16 16 16 16 16 15 15 14 14 13 12 11 10 7 3 1 4 3 3 6 4 3 3 3 4 2 1 0 3 2 1 1 1 3 2 5 0 2 1 1 0 3 1 4 4 3 4 5 6 4 4 8 8 3 1 7 1 1 2 6 5 5 6 10 8 9 11 6 4 3 4
19 18 17 17 16 15 15 14 14 13 13 13 13 14 14 15 15 15 15 15 15 15 14 14 13 12 12 12 10 6 1 2 2 4 3 5 3 4 4 4 5 4 1 1 1 1 2 3 3 3 2 6 4 1 3 2 2 1 2 1 1 2 1 4 2 5 8 2 4 4 1 4 6 3 1 4 7 4 4 4 2 7 7 9 6 2 3 1
18 18 18 17 16 15 15 14 14 13 13 13 13 13 14 14 15 15 15 15 14 14 14 13 13 12 11 10 11 2 2 3 2 1 9 2 3 5 5 5 6 2 1 0 1 2 2 2 2 3 3 1 3 1 1 2 1 2 1 2 2 0 1 6 5 5 4 2 2 2 1 3 2 2 1 2 3 6 3 5 4 5 4 5 6 1 1 1
18 18 18 17 17 16 15 14 13 13 13 13 13 13 14 15 15 15 15 15 14 14 14 13 12 12 10 7 1 1 1 4 1 3 2 2 6 6 6 6 6 2 1 4 3 2 4 5 5 2 3 3 1 2 3 1 0 1 2 2 3 2 2 3 4 4 2 2 1 1 1 1 1 3 2 1 4 5 7 6 5 5 3 4 1 1 3 3
18 19 18 17 17 16 15 15 14 14 13 13 13 13 14 14 14 15 15 14 15 14 13 12 11 11 11 4 1 3 3 3 1 8 4 3 7 7 7 6 7 2 2 4 6 3 3 3 5 0 2 1 1 0 1 2 3 5 1 1 5 2 4 4 4 7 3 0 3 1 0 1 1 3 0 2 7 9 9 5 4 4 2 2 3 3 1 2
18 19 18 17 17 16 16 15 14 14 13 13 13 13 13 13 14 14 14 14 14 14 12 11 10 10 8 1 2 4 2 1 5 5 7 9 7 7 8 4 3 2 2 1 1 2 1 4 2 1 2 2 0 1 2 2 2 0 1 1 4 2 4 5 4 5 4 4 4 1 1 2 2 2 1 4 9 10 9 5 3 2 2 1 1 4 1 3
19 19 18 17 17 17 16 15 14 14 14 14 14 13 13 13 13 14 14 14 14 13 12 10 10 8 1 1 2 2 2 4 6 2 3 4 5 6 4 1 1 1 0 1 1 1 2 1 1 1 2 0 0 4 3 1 2 1 2 1 3 4 5 5 5 3 2 4 3 1 1 2 7 2 2 7 9 8 6 7 6 2 1 3 3 1 4 4
19 19 18 18 17 17 16 16 15 15 14 14 14 13 13 14 14 14 14 14 13 12 11 9 9 7 2 2 3 4 3 6 3 0 2 5 5 4 3 3 4 1 1 0 2 1 0 1 1 2 3 0 1 2 0 1 2 1 4 3 4 7 5 3 0 5 5 3 1 1 5 2 4 2 4 4 9 6 8 7 8 3 2 3 4 2 2 2
19 18 18 18 17 17 17 16 16 15 15 15 14 14 14 14 14 13 13 13 12 11 9 8 8 3 0 2 3 1 4 4 1 3 4 6 3 1 5 4 3 0 1 3 3 3 3 1 1 1 1 1 0 3 1 1 1 2 2 4 2 4 4 2 3 1 3 3 3 1 3 3 4 0 4 6 7 6 5 9 8 6 3 3 5 5 1 4
19 20 19 18 18 17 17 17 17 17 16 16 15 15 15 14 14 13 12 11 11 10 8 6 5 0 1 2 2 4 2 3 2 2 1 4 3 5 1 5 4 4 2 4 7 4 3 1 2 1 2 0 2 3 1 2 0 3 0 2 6 6 6 3 4 4 2 2 1 1 2 4 4 4 8 8 6 8 6 7 7 7 2 1 2 4 4 4
20 19 19 19 18 18 18 17 17 18 17 17 16 16 15 15 14 14 12 9 7 7 5 3 2 1 1 4 6 8 3 3 4 3 1 1 0 2 2 2 4 5 4 3 5 3 2 3 1 1 2 1 1 1 1 2 3 2 2 1 4 6 5 1 1 2 4 2 1 3 1 3 7 9 10 8 5 6 7 8 7 6 5 2 2 4 4 4
20 20 20 20 19 19 19 19 18 18 18 18 16 16 15 15 14 13 10 9 7 5 4 3 1 1 1 3 5 3 4 2 1 2 2 1 0 5 3 3 4 3 3 5 7 5 1 2 2 3 1 1 2 2 4 5 4 3 3 3 2 6 5 3 3 5 6 1 3 2 1 4 8 11 9 6 3 3 4 7 8 7 7 5 3 3 5 7
20 20 20 20 20 20 19 19 19 18 18 18 18 16 15 14 12 10 8 5 6 4 4 3 0 1 2 5 6 7 7 1 1 5 3 3 2 4 6 3 3 5 5 5 1 1 2 4 2 1 1 0 1 2 3 3 4 2 4 2 4 1 7 7 6 1 4 3 4 4 1 2 7 11 7 6 7 4 5 7 8 9 9 9 6 8 8 9
20 20 20 21 20 21 20 20 19 19 18 19 17 17 15 10 7 4 3 4 2 5 2 1 2 2 0 3 1 2 3 2 5 3 3 4 4 6 4 3 5 2 0 2 2 1 1 2 1 1 0 2 3 2 3 6 4 4 3 3 3 1 5 8 0 3 1 2 2 5 2 3 5 6 9 8 7 5 5 9 8 11 11 11 10 9 9 10
21 20 21 21 20 21 21 21 20 20 19 19 19 13 8 5 3 1 5 4 3 3 0 0 0 0 1 2 2 1 1 3 4 3 2 3 5 3 4 4 1 4 4 2 3 4 2 1 2 1 5 2 1 2 2 4 5 3 1 1 2 2 3 4 7 2 4 3 3 3 1 3 6 11 9 11 8 11 13 10 11 10 10 10 10 10 9 9
21 21 21 21 20 20 21 21 22 21 19 20 15 10 5 4 11 10 7 4 2 1 0 0 2 2 4 3 1 3 1 6 5 4 3 1 4 1 1 1 2 3 2 1 4 2 2 0 4 2 2 4 1 2 2 5 3 4 5 4 5 1 2 5 2 4 5 1 2 2 1 4 6 7 9 9 9 13 11 9 8 10 10 9 9 9 9 8
20 21 21 21 21 21 21 22 21 21 20 18 9 4 5 8 1 1 4 0 1 2 1 1 2 1 2 4 5 6 3 7 4 1 2 3 1 1 1 2 4 3 1 4 2 2 3 2 3 3 4 6 4 1 3 5 2 4 4 4 3 3 4 5 4 4 0 3 4 3 4 4 6 6 7 7 8 13 8 8 10 10 9 9 9 9 9 9
22 22 21 21 22 21 22 21 21 19 19 9 5 1 3 6 6 1 5 1 1 3 2 3 1 3 5 6 5 4 5 4 1 2 1 2 1 2 2 2 2 5 4 2 5 1 1 3 0 2 5 4 5 2 3 3 2 1 0 0 4 2 5 4 3 6 0 1 0 3 3 2 4 6 3 4 8 13 13 12 11 11 10 10 11 10 9 10
22 23 22 22 22 22 21 21 19 16 11 1 2 4 2 0 2 3 6 7 3 2 2 3 5 4 5 3 3 4 5 4 1 2 0 1 5 1 2 3 5 4 2 2 1 3 2 4 2 2 3 4 4 3 4 3 3 1 2 3 7 1 6 3 4 3 2 3 3 2 2 4 3 4 4 4 15 12 11 11 12 10 10 9 10 12 11 7
22 23 23 23 23 23 22 21 18 14 4 0 3 3 1 1 1 2 1 5 6 2 3 4 1 4 4 6 4 3 3 1 8 4 3 0 2 4 4 5 2 2 4 3 3 7 4 3 3 4 4 2 6 6 4 3 2 3 2 2 4 5 3 7 2 1 2 2 5 1 2 3 5 3 3 9 9 5 6 7 6 9 11 11 11 11 12 13
23 23 24 24 23 23 22 20 18 12 3 3 3 1 0 2 1 0 1 0 4 3 1 0 1 3 5 4 1 5 0 1 3 5 1 1 2 1 0 3 4 2 3 5 3 2 3 2 3 3 2 4 3 5 6 4 2 2 5 3 4 3 4 5 4 3 5 1 3 1 2 3 1 1 4 4 5 3 3 5 6 8 10 10 10 9 10 11
22 23 24 24 24 24 23 21 16 3 2 1 2 1 3 1 0 2 1 0 2 8 1 3 1 2 3 1 1 2 1 2 1 4 2 1 0 2 2 1 2 3 4 3 1 1 2 4 0 2 7 4 3 3 5 5 6 2 2 2 2 4 4 3 5 5 4 4 1 1 5 3 4 2 3 3 2 3 3 3 6 8 7 5 5 7 9 10
22 23 23 24 25 24 25 19 3 1 1 0 1 2 2 1 1 3 2 2 1 3 3 0 2 2 2 1 2 1 1 0 4 3 3 1 1 1 1 1 1 1 4 0 3 1 2 2 1 3 5 6 4 5 2 2 6 7 3 5 3 3 6 6 4 5 6 3 2 4 3 0 1 1 1 2 3 7 5 10 10 10 12 13 15 14 12 9
22 22 23 23 25 26 22 2 1 2 1 1 0 2 2 2 2 3 5 3 1 3 5 2 0 1 0 0 2 1 2 1 0 2 1 1 2 1 1 1 1 3 3 1 1 1 1 2 5 1 3 3 3 1 1 1 4 3 6 4 1 4 4 4 3 1 1 2 3 2 2 1 2 2 4 3 3 5 4 8 8 9 11 11 11 13 13 13
21 22 22 22 21 23 4 1 2 2 0 1 1 3 3 1 2 2 1 4 2 0 1 3 1 0 2 1 0 1 1 2 4 2 2 3 1 1 2 3 2 0 1 0 4 1 0 3 5 5 4 3 4 6 1 1 2 4 4 0 4 4 5 2 1 3 3 2 2 5 2 0 1 2 2 3 1 6 10 10 10 10 10 11 10 11 12 13
22 21 21 21 20 14 4 5 6 1 1 0 0 3 2 1 3 3 3 2 1 2 1 3 0 2 2 4 6 2 1 4 2 2 0 4 0 3 5 1 2 0 2 2 1 3 1 1 2 3 3 3 4 2 2 1 1 4 8 6 6 6 4 1 2 4 2 2 3 7 5 2 1 1 4 3 8 9 9 7 8 9 9 10 11 11 12 12
22 21 21 20 22 15 3 3 1 1 1 2 1 2 2 5 5 5 3 1 2 0 0 1 4 1 6 3 6 3 2 4 1 2 5 1 4 1 2 0 4 3 2 3 1 2 2 1 1 4 3 3 4 2 2 4 3 5 7 3 1 1 1 1 3 3 1 3 0 4 5 1 5 4 5 3 3 7 6 6 8 9 11 11 12 11 11 11
24 21 21 20 14 2 1 1 4 4 3 3 2 1 3 3 2 1 2 2 1 1 0 2 3 4 3 1 1 6 5 3 1 4 4 2 8 6 2 2 2 2 1 5 3 4 2 5 5 4 0 1 2 3 2 2 1 7 2 4 5 5 3 3 5 3 4 3 2 1 4 1 3 2 1 3 2 3 4 3 6 9 10 10 9 10 12 13
24 24 21 17 4 3 0 4 6 3 4 2 1 5 4 6 2 3 0 2 0 2 2 3 2 4 4 6 4 4 1 3 6 3 2 6 6 5 2 1 5 4 4 6 3 7 5 1 0 1 1 2 1 1 1 0 2 5 5 4 3 1 6 3 5 4 3 2 2 1 4 1 3 2 4 2 2 2 2 7 11 13 13 12 11 11 12 12
26 27 23 12 6 1 3 1 0 1 3 1 3 4 3 3 4 2 1 3 1 4 3 3 1 1 3 1 4 5 3 5 3 4 3 2 2 5 3 4 2 4 5 3 5 4 1 1 2 5 2 4 3 2 3 0 6 8 3 8 8 3 5 2 7 6 1 1 1 1 3 2 3 3 4 4 3 2 2 4 8 10 11 12 11 12 11 11
25 27 27 11 8 5 7 4 3 4 3 3 5 3 2 4 0 2 2 3 1 0 1 2 1 3 1 2 4 4 1 2 4 1 0 1 4 2 0 2 1 1 2 2 1 6 2 2 5 6 4 1 2 5 7 6 6 7 6 3 5 4 5 2 4 1 4 5 3 2 2 2 2 4 4 3 2 1 1 4 6 8 10 11 12 12 12 12
25 26 12 2 7 9 3 1 1 3 1 4 2 2 6 3 1 3 1 1 1 1 2 1 2 2 5 3 2 2 4 0 4 3 2 0 4 1 3 3 1 2 1 0 3 0 2 3 3 3 1 2 3 3 1 2 2 0 1 1 3 5 2 0 2 1 3 6 7 3 0 1 3 1 3 4 2 1 3 8 11 11 10 10 10 10 11 12
27 18 6 3 4 8 12 6 3 3 2 3 7 4 3 1 1 1 1 2 2 1 1 2 1 2 2 2 2 1 1 1 3 2 5 2 1 0 0 1 2 4 1 3 1 1 0 4 6 3 4 2 2 1 0 1 1 1 3 4 5 0 2 1 2 2 2 4 6 3 1 2 2 1 2 3 4 5 9 14 14 16 15 16 15 15 15 13
15 6 0 2 2 3 6 6 4 1 2 5 4 4 1 3 1 1 1 2 0 0 2 2 4 1 1 3 1 1 4 0 4 2 2 3 1 0 0 1 1 1 1 2 1 0 2 2 1 5 4 4 3 1 3 1 0 2 2 2 2 3 4 1 2 1 1 2 5 1 5 3 5 4 5 6 10 11 12 13 14 16 15 14 14 15 15 14
7 8 1 2 2 0 4 6 6 6 7 5 5 0 3 2 4 3 3 1 1 3 2 2 2 0 1 1 2 5 2 2 1 2 1 1 1 1 1 1 4 0 3 2 3 3 1 7 3 2 1 1 2 4 4 5 0 1 4 2 1 2 2 3 1 3 3 1 5 2 2 5 4 1 3 8 12 13 12 11 12 13 14 14 13 13 15 15
8 4 5 5 2 2 4 6 4 6 3 1 1 3 0 0 0 1 1 2 0 2 2 2 1 3 1 0 3 1 3 3 6 2 0 0 1 2 1 1 1 2 0 0 2 2 2 3 2 1 2 4 3 2 3 3 5 4 2 2 1 0 1 2 3 3 2 3 4 4 2 3 3 3 6 10 10 13 12 10 10 13 13 12 12 14 14 14
3 2 1 1 3 4 3 2 5 4 2 4 0 1 2 2 1 1 5 5 1 3 0 3 1 0 3 1 2 1 1 2 1 1 1 1 2 0 1 2 1 1 2 4 1 0 2 1 4 2 1 2 2 4 3 4 1 2 0 2 1 2 1 0 0 1 3 3 4 3 2 5 2 2 1 5 7 10 13 13 13 15 14 13 13 13 14 14
3 1 1 3 2 2 2 1 2 4 3 1 3 2 1 1 1 2 1 2 1 2 2 1 1 0 1 2 2 0 1 0 1 0 1 1 0 2 0 2 1 3 4 0 1 0 0 1 1 3 3 2 2 4 3 2 2 4 4 3 3 2 1 2 1 1 2 1 2 4 5 2 1 3 3 4 7 9 11 14 14 14 15 15 15 14 14 15
1 1 1 3 4 2 2 4 3 1 2 0 1 1 1 0 0 1 3 2 0 1 1 2 4 2 3 1 2 0 0 0 0 0 1 1 0 1 2 2 2 1 1 2 1 0 1 0 2 4 6 3 2 1 3 2 1 1 1 2 2 1 1 1 2 2 1 1 2 3 8 5 3 2 0 5 6 10 12 12 14 14 15 15 15 15 15 15
1 0 2 2 4 2 3 1 1 0 1 1 0 2 0 1 1 1 1 1 1 0 2 3 0 1 1 1 1 1 1 0 0 0 1 1 2 3 3 2 3 1 1 1 0 2 2 3 1 4 1 1 2 3 2 2 3 2 1 1 3 2 4 4 1 2 2 2 1 2 5 5 2 1 6 7 11 12 11 11 13 13 14 14 15 16 16 14
3 1 3 3 3 2 3 1 1 1 0 2 3 1 1 0 2 1 0 1 0 1 1 1 2 1 2 1 1 0 2 1 3 1 1 1 2 6 5 2 4 3 1 1 2 0 3 1 1 3 3 0 1 1 1 1 1 1 2 3 1 0 1 3 2 2 1 3 2 2 3 5 2 2 8 13 12 9 9 9 11 12 11 12 13 14 16 16
1 2 4 1 2 2 2 1 1 1 3 3 1 1 0 1 1 0 0 1 0 1 0 0 1 1 0 1 2 1 3 1 2 1 1 1 1 5 4 1 2 1 2 2 2 2 1 1 2 1 4 4 2 2 2 1 1 1 1 0 2 2 3 1 1 1 1 3 3 1 6 5 3 6 11 10 12 13 13 13 11 12 11 12 13 13 13 15
2 2 2 6 5 1 1 3 2 1 1 1 2 0 1 0 2 1 1 1 0 1 1 1 1 1 1 0 1 1 0 1 1 2 0 1 2 2 7 5 3 1 3 4 1 4 1 2 2 2 3 6 7 7 5 2 4 1 0 0 1 5 4 1 1 1 2 2 1 2 7 7 5 10 12 11 13 14 13 13 14 11 11 12 11 12 15 15
2 1 4 2 6 4 3 1 2 2 0 0 1 1 1 1 0 3 2 1 1 0 0 1 1 2 2 1 1 1 1 0 1 1 0 1 2 2 3 6 2 2 3 3 4 2 1 0 1 3 3 4 5 5 1 4 2 1 2 1 2 2 2 2 3 4 3 3 3 8 8 15 14 11 12 15 14 14 16 16 17 17 17 17 15 13 14 15
0 1 0 0 5 4 0 4 1 1 1 2 0 1 1 2 2 2 1 0 0 1 1 1 0 0 1 2 0 0 0 0 3 0 2 2 2 2 7 4 5 2 4 2 3 4 2 2 3 3 5 6 2 3 6 4 4 3 5 5 3 5 5 5 4 4 3 0 8 3 6 8 12 13 14 15 15 14 13 15 15 15 16 17 17 18 20 20
1 1 1 1 1 1 1 2 1 2 0 0 2 0 1 0 0 0 2 0 0 1 0 1 2 1 2 2 3 0 1 0 1 1 2 2 1 4 4 2 1 4 3 1 1 1 1 1 3 1 3 4 5 3 4 2 4 4 7 5 5 6 5 7 6 9 4 4 9 4 6 10 11 12 14 13 13 12 14 15 15 15 14 14 15 17 19 20
1 1 1 1 1 3 3 1 1 0 1 3 1 0 1 1 2 3 1 1 1 1 1 0 1 3 1 2 2 1 1 0 3 1 2 1 0 2 2 3 0 3 3 1 2 1 2 2 2 1 3 3 4 1 2 5 1 1 4 6 5 6 8 9 8 4 6 9 7 8 10 11 11 13 14 13 11 11 12 12 13 14 15 14 14 16 18 18
1 1 1 3 1 1 1 1 1 1 1 1 3 3 3 3 1 0 1 2 1 1 0 1 2 2 3 4 3 1 6 6 4 3 2 2 1 1 1 4 2 3 3 1 1 1 3 4 1 0 1 3 4 4 1 2 1 2 4 4 3 3 4 6 3 5 1 6 8 10 10 12 9 9 9 8 10 10 10 12 15 15 13 13 15 16 18 18
0 1 1 1 2 2 1 1 1 0 1 0 1 2 1 2 2 3 1 4 3 2 2 3 3 1 0 3 3 6 7 8 7 9 8 6 2 5 3 3 3 2 4 1 1 1 1 4 2 2 2 4 3 2 2 2 2 3 5 6 7 4 3 2 2 6 5 7 5 6 7 9 10 7 7 8 9 10 12 12 14 14 13 13 16 18 20 21
0 0 1 2 1 2 0 0 1 1 1 2 2 2 2 4 3 1 1 2 2 3 5 5 4 3 1 1 7 10 9 7 10 10 9 9 3 2 4 3 7 2 0 1 0 1 1 1 2 1 2 2 4 0 1 3 4 6 8 9 8 6 3 3 4 3 9 5 2 5 7 8 11 10 12 14 11 12 12 10 13 16 14 15 16 18 19 18
Wind_Direction
350 350 349 348 348 346 345 343 340 338 336 334 332 329 326 325 326 326 327 326 325 326 327 326 327 328 329 332 334 338 340 358 348 24 36 241 203 201 187 206 134 357 25 59 20 48 348 12 12 352 64 76 319 44 295 75 132 58 64 110 27 200 193 224 226 196 208 255 288 53 338 360 323 326 285 23 111 339 275 288 298 128 160 178 284 262 11 348
350 349 349 348 347 347 345 341 341 338 336 332 332 330 325 324 325 325 324 325 325 324 325 327 326 326 329 331 332 341 339 17 347 340 238 188 177 171 183 114 70 29 359 34 35 38 34 355 356 18 52 54 321 50 7 303 19 108 120 87 239 185 236 160 211 241 284 271 276 304 335 258 272 325 302 346 318 357 336 327 340 333 310 225 99 333 18 33
351 349 348 347 346 345 343 341 339 336 334 333 330 328 325 322 323 322 323 322 322 324 324 324 327 327 325 329 334 344 3 345 3 9 295 183 191 172 146 100 85 33 57 16 108 76 45 242 267 42 16 84 359 27 32 344 25 236 119 204 243 210 255 244 247 266 241 274 300 313 312 342 276 275 305 299 301 342 329 320 338 348 334 332 345 353 355 89
349 349 347 346 344 344 343 340 336 336 333 331 328 326 324 321 319 320 320 320 320 320 322 323 323 324 326 324 334 344 5 38 32 272 269 251 189 151 109 112 94 69 42 70 147 84 119 79 70 79 39 63 319 13 45 307 68 267 85 172 247 219 327 290 259 253 272 253 266 271 321 325 289 246 27 295 349 320 271 243 228 295 310 310 327 355 0 46
348 348 347 345 343 343 342 338 336 334 330 328 327 323 321 318 318 317 317 316 316 318 316 320 322 321 323 328 326 23 32 55 293 237 256 260 169 116 121 117 106 87 87 173 95 70 85 99 97 44 70 41 1 13 314 323 161 88 204 198 211 179 254 272 277 275 250 228 228 306 0 262 307 324 284 327 287 283 266 284 229 249 274 295 315 42 30 29
349 347 346 344 342 341 339 338 334 332 329 325 323 320 319 317 315 315 314 313 314 314 314 320 320 322 325 330 38 83 86 73 265 272 282 257 105 120 127 121 116 86 24 27 53 342 56 2 63 27 12 70 4 80 283 235 335 60 313 264 233 217 261 270 317 306 56 339 285 326 236 334 23 293 264 189 243 245 250 249 268 270 255 262 269 118 112 126
348 347 346 344 341 340 338 337 333 331 324 324 319 319 316 316 314 313 312 312 309 310 315 321 322 323 331 17 114 67 83 272 327 257 316 96 113 108 123 117 98 70 47 17 16 46 12 52 71 53 91 51 294 14 282 309 13 110 239 353 318 150 265 270 285 306 331 188 273 196 290 269 288 339 26 288 266 264 272 280 254 272 242 296 329 301 108 163
347 348 347 344 341 338 336 335 331 326 324 321 319 314 315 312 312 310 308 307 305 306 314 322 325 321 354 39 25 352 31 310 258 257 253 95 93 106 98 79 93 80 55 55 9 29 50 46 65 114 59 102 234 47 315 8 19 63 302 271 276 331 258 292 288 297 306 273 264 132 133 244 201 232 11 264 264 280 283 322 321 346 337 339 335 292 137 146
347 348 346 344 340 337 335 333 329 326 323 318 315 314 311 310 307 306 302 301 301 303 311 318 323 320 136 70 93 38 326 239 212 290 243 116 104 95 90 22 105 112 138 57 139 124 65 279 75 144 296 9 310 348 327 29 331 180 236 332 288 290 302 301 318 311 300 284 134 80 247 288 262 282 245 242 273 271 302 324 315 40 355 301 274 251 272 168
348 348 347 344 341 336 334 331 327 323 319 316 313 309 307 305 302 301 298 296 295 299 304 309 321 324 20 70 36 66 261 240 333 311 167 115 99 84 52 152 129 129 349 184 60 89 81 260 79 214 136 108 132 315 249 87 294 202 299 269 277 285 323 329 346 317 312 258 177 359 320 285 272 115 286 288 254 294 322 305 304 19 292 297 300 282 233 280
347 347 346 344 340 338 332 329 325 320 318 314 310 305 303 299 297 294 295 292 291 292 298 305 318 347 23 81 83 237 256 34 16 65 109 126 99 348 262 153 166 100 183 303 281 189 224 279 172 90 38 207 29 289 156 225 241 296 231 316 331 331 282 269 318 294 355 351 99 77 299 315 315 212 237 263 322 358 323 304 310 321 15 307 300 298 233 243
348 348 346 344 341 337 332 327 323 318 314 313 306 303 297 290 286 285 285 286 286 290 296 302 317 114 71 82 141 216 255 223 20 37 138 135 176 220 197 172 162 177 155 295 296 249 194 195 109 16 273 44 321 322 334 241 12 293 204 325 311 4 352 356 358 322 28 296 337 170 43 1 336 288 285 280 5 338 329 304 306 313 0 313 289 294 293 245
347 346 346 344 341 337 331 326 322 318 315 312 306 301 296 291 286 285 280 284 280 280 278 296 288 59 54 4 239 235 285 288 347 16 68 148 336 242 211 193 186 186 189 218 256 260 154 147 104 14 220 91 259 339 272 51 298 334 45 3 343 356 344 293 330 334 358 258 61 81 18 274 286 281 291 310 353 358 339 324 318 319 312 327 288 293 296 303
347 346 346 344 340 336 331 327 322 319 315 312 306 302 295 291 287 281 273 259 262 253 284 227 91 57 89 243 273 259 274 297 32 36 224 102 70 288 356 246 216 212 198 216 252 274 235 176 188 221 125 186 278 285 3 337 23 344 286 64 70 356 290 303 1 307 355 167 61 83 175 280 274 289 288 311 7 60 309 303 309 324 322 9 327 320 319 312
345 344 344 342 340 335 332 327 324 317 313 309 309 303 298 293 285 273 263 261 236 240 179 66 112 65 32 279 265 283 246 108 4 250 177 142 178 327 285 323 280 228 217 210 223 38 160 118 123 12 261 321 45 23 319 4 356 6 32 308 336 67 279 311 313 111 352 323 11 78 36 229 284 285 306 320 334 356 322 318 340 343 352 18 19 10 1 340
343 344 342 341 339 336 332 328 324 319 315 313 312 309 303 295 291 273 231 191 184 162 115 347 347 83 108 331 153 335 44 27 318 283 236 167 157 217 247 294 271 341 64 282 250 266 25 111 82 205 283 3 52 91 29 20 344 352 61 284 294 321 269 345 302 355 259 270 342 53 256 309 308 296 315 351 339 0 11 12 11 17 27 32 34 28 19 9
341 341 341 339 338 336 333 329 326 322 318 317 318 309 299 287 237 57 117 118 96 110 75 130 265 62 58 239 284 25 294 277 287 331 11 201 167 193 358 346 337 328 1 356 62 97 7 84 321 37 39 91 135 85 5 22 324 317 33 251 231 285 321 316 309 355 6 48 324 32 57 250 265 295 326 355 10 49 44 31 30 36 40 34 33 32 26 16
340 340 340 338 336 336 333 331 328 325 323 320 321 303 309 99 124 98 64 46 110 123 248 179 115 45 302 346 351 287 296 289 305 280 256 278 152 139 207 323 304 359 33 31 356 68 336 54 33 178 6 359 19 54 65 289 278 289 317 339 318 303 228 251 343 278 20 20 356 2 64 297 304 308 19 21 31 59 48 36 31 30 33 37 34 28 22 19
339 340 340 339 336 335 335 332 329 327 326 323 320 65 89 117 91 97 97 133 42 355 31 330 32 67 193 271 289 286 279 238 281 60 295 100 65 106 46 83 66 359 339 61 316 55 356 60 23 38 345 330 330 156 173 240 190 244 231 238 235 304 304 307 247 272 104 331 338 3 318 297 306 351 22 30 42 59 47 39 35 28 25 27 36 29 19 8
340 340 340 339 337 334 335 332 329 328 337 343 14 28 16 13 7 339 333 32 145 194 238 239 126 262 300 283 275 261 271 39 52 283 290 287 171 354 30 53 358 51 70 34 310 42 125 79 69 266 249 254 272 219 231 263 205 221 73 189 253 252 281 265 261 261 283 18 239 278 292 287 302 30 28 26 50 48 38 33 30 23 20 19 17 23 18 12
339 341 339 338 337 335 332 331 328 333 341 48 344 60 38 88 52 321 315 283 247 227 227 246 194 204 237 286 287 6 15 320 84 281 354 132 72 78 293 32 18 39 353 271 211 300 65 57 331 249 244 262 303 12 18 27 46 24 288 346 316 317 289 269 282 331 333 48 277 299 9 299 29 40 38 33 58 43 36 31 25 20 15 16 16 9 11 359
338 339 338 338 337 335 332 329 326 333 347 254 65 100 154 199 216 214 92 333 320 233 196 257 340 293 307 251 239 131 115 306 326 302 295 130 336 53 313 78 70 47 331 354 22 19 32 70 314 296 303 68 61 51 52 67 355 15 27 292 336 298 241 292 288 324 322 355 257 305 32 328 47 64 42 57 69 68 50 48 36 20 16 11 8 7 1 2
338 338 338 337 337 334 333 323 327 327 328 40 48 78 152 278 320 309 90 146 278 274 341 33 265 259 297 269 264 120 81 223 273 311 282 70 354 51 171 44 9 324 3 32 65 16 21 281 270 303 17 73 35 40 37 29 59 6 346 11 287 268 22 314 285 349 327 256 276 333 293 14 24 71 54 43 75 73 58 49 36 32 22 11 5 0 358 1
338 339 338 337 336 336 326 325 311 315 30 127 137 86 283 330 68 38 44 207 292 312 195 231 197 232 259 329 306 114 145 275 102 304 304 64 108 172 69 122 22 41 334 2 100 137 201 247 156 63 42 67 65 5 47 25 330 273 215 228 256 310 285 225 288 325 313 312 189 64 54 45 3 5 6 24 12 64 32 33 36 27 24 3 346 8 17 1
337 339 339 336 336 335 325 317 25 335 218 59 276 249 294 353 48 151 99 343 6 294 240 312 143 254 229 4 11 295 249 328 235 246 282 99 128 39 342 167 96 287 307 166 93 54 325 277 182 42 33 38 59 17 14 35 335 333 253 190 234 266 289 285 307 348 17 346 342 38 39 77 278 288 40 307 15 28 3 29 21 10 8 7 4 356 350 357
337 338 338 337 336 335 314 352 339 338 12 171 179 0 343 3 93 114 97 75 351 265 349 306 82 316 97 292 13 204 56 319 210 254 233 250 163 138 68 6 74 330 341 95 257 185 178 353 67 84 72 40 60 80 266 93 338 19 295 187 233 282 270 273 300 58 23 75 303 15 141 219 322 46 1 337 18 8 6 36 19 11 9 7 360 351 349 346
336 337 337 337 336 340 358 167 325 289 48 305 296 311 303 299 164 94 41 4 37 286 17 247 48 291 68 314 248 60 51 273 297 356 26 346 339 338 103 288 11 357 110 172 42 285 356 349 35 34 54 49 23 15 285 122 49 301 240 44 333 299 280 257 194 164 220 239 302 28 92 137 298 302 351 337 42 10 15 11 10 9 2 1 355 350 347 343
332 335 335 334 332 332 236 313 331 145 212 192 357 302 338 85 98 57 78 67 325 287 13 313 209 337 60 307 31 107 205 263 30 325 97 305 2 353 86 192 126 2 316 71 307 255 95 3 47 23 48 34 18 255 259 163 159 258 295 335 297 264 258 216 159 153 209 88 338 344 357 75 273 264 316 7 28 8 9 0 356 356 357 353 351 347 342 341
329 332 334 332 326 319 238 203 305 237 230 255 327 339 83 65 83 100 109 109 255 251 207 61 256 18 335 358 27 7 343 15 121 259 322 20 47 166 55 179 137 151 66 101 187 301 314 151 180 120 86 347 262 262 223 149 29 286 301 321 348 46 81 124 119 107 14 69 324 346 348 83 284 289 352 334 65 8 345 337 349 354 351 349 345 340 337 334
326 329 331 330 327 52 359 335 241 241 305 287 355 104 55 53 34 42 25 288 22 338 144 263 45 293 34 60 328 0 30 340 328 307 29 76 334 33 52 138 123 72 359 9 90 217 280 306 179 76 156 253 291 270 169 137 174 281 359 14 6 32 28 28 56 86 64 30 255 100 354 114 304 302 294 44 5 238 297 319 341 346 348 347 343 338 337 336
324 324 324 327 296 284 273 307 257 255 262 329 54 53 71 41 113 99 89 235 25 277 7 17 349 19 32 48 353 326 3 337 346 25 355 9 356 33 26 34 45 51 34 13 353 338 352 357 61 287 28 312 55 335 60 93 282 30 14 341 13 341 15 27 350 37 81 300 255 228 342 186 171 293 278 243 264 268 303 350 344 347 345 343 340 337 335 332
323 320 316 312 235 271 182 204 293 337 317 335 64 59 73 256 8 87 223 317 70 289 75 290 322 40 11 343 62 344 334 330 341 25 43 31 30 38 5 120 29 36 344 348 321 350 73 54 290 296 317 27 331 40 320 1 357 24 18 20 70 297 25 345 8 4 16 119 187 86 5 46 240 215 208 226 247 297 353 344 338 341 339 337 334 332 328 325
320 317 313 291 214 200 244 257 330 317 7 50 69 48 61 93 251 265 309 331 251 203 303 135 285 10 336 59 342 329 308 55 312 15 95 16 92 15 298 88 170 109 347 287 319 11 285 279 359 328 9 45 86 43 336 7 358 9 39 34 61 41 37 350 287 216 316 292 267 11 315 209 257 293 212 201 234 202 283 295 344 347 342 332 330 329 325 323
318 315 312 193 196 216 233 264 227 349 57 37 73 36 45 55 256 223 274 235 251 355 77 52 353 1 45 89 309 358 4 294 28 326 38 191 50 42 329 336 47 6 76 148 43 164 42 346 311 6 2 342 56 136 153 236 324 266 198 120 159 141 144 307 262 303 246 255 293 291 73 245 19 248 207 190 138 273 291 345 352 344 338 333 326 325 323 321
316 301 262 288 241 238 233 234 290 22 81 63 51 89 109 249 208 219 260 292 285 295 118 341 108 46 334 4 307 327 151 293 12 4 19 70 3 133 294 306 342 104 154 66 275 76 250 226 256 238 254 6 64 326 101 83 77 274 145 103 61 6 145 140 205 181 298 325 322 330 234 195 192 249 28 44 359 333 348 359 345 343 344 342 338 335 329 323
320 322 122 248 227 264 183 195 176 134 85 56 75 41 101 187 316 173 249 187 69 44 282 23 74 67 294 311 316 44 336 175 328 72 348 31 213 128 237 207 236 171 51 99 219 1 33 321 284 317 7 39 341 328 8 280 19 280 53 29 242 180 106 81 18 17 53 48 259 235 312 316 295 25 19 7 358 353 359 350 343 337 336 336 333 329 322 317
342 328 28 307 276 154 139 152 154 116 68 93 93 276 205 281 192 161 228 173 244 139 59 77 302 120 317 314 272 343 300 24 326 71 322 308 343 255 288 287 183 78 204 136 315 202 156 263 296 33 1 22 99 94 73 35 193 45 51 247 141 145 131 126 219 335 62 118 266 13 252 308 32 306 314 6 356 350 350 339 331 325 329 332 327 319 316 315
330 320 266 283 255 111 136 162 110 55 79 84 86 214 204 95 214 167 185 108 17 51 99 106 276 105 256 134 324 291 310 84 304 52 263 169 233 224 67 255 259 215 24 267 107 318 109 346 304 298 233 287 349 41 25 18 42 89 137 157 89 296 338 321 88 349 9 321 282 304 244 251 201 256 4 358 348 339 329 325 322 324 325 321 316 313 310 310
280 334 32 352 344 141 142 133 66 74 55 55 259 29 249 227 241 198 210 150 94 123 156 229 150 286 133 159 235 302 324 43 301 65 80 302 88 132 19 165 341 151 17 138 53 196 48 173 299 309 89 318 33 29 27 325 356 75 85 16 102 96 158 84 189 177 121 270 348 272 333 284 230 159 20 341 341 329 329 331 330 323 321 320 321 317 315 316
13 22 335 348 354 84 106 52 57 43 66 113 208 219 229 238 257 268 228 170 282 115 238 164 222 166 220 215 145 9 319 144 141 245 98 263 285 298 286 348 217 314 99 58 150 113 138 94 262 273 309 37 9 357 18 10 322 334 24 341 358 39 212 100 38 97 149 198 217 296 301 264 254 184 49 344 336 333 335 329 323 319 318 320 320 319 316 315
293 106 268 333 11 27 48 43 46 41 95 265 152 233 328 229 299 299 4 153 173 264 158 185 160 182 202 112 310 172 202 26 198 73 196 308 123 332 259 208 188 301 313 5 46 54 73 23 236 305 4 14 216 256 320 322 214 136 122 92 166 10 25 56 281 41 352 207 265 309 279 271 232 146 75 358 328 342 337 323 315 312 314 315 316 316 316 315
29 17 275 324 331 37 73 24 28 245 97 161 352 170 276 89 59 300 341 347 99 73 35 110 150 135 132 155 171 172 138 303 25 65 251 170 263 147 270 122 169 194 120 250 247 237 143 163 78 295 218 260 251 359 325 43 65 53 61 93 97 100 99 98 103 280 358 258 271 246 292 289 145 192 352 343 346 336 322 313 308 309 311 312 314 315 313 311
57 225 263 0 339 85 65 63 272 40 193 232 294 297 293 2 148 244 326 341 329 118 5 33 194 144 246 157 189 151 167 233 168 215 198 217 260 208 232 99 124 58 98 302 26 271 123 59 35 297 315 272 211 268 348 47 62 30 40 77 77 29 183 170 176 183 168 319 19 311 242 263 268 316 340 346 326 315 304 300 300 304 303 305 308 310 311 312
285 268 318 304 32 98 72 218 335 313 276 312 46 260 240 191 138 341 318 281 126 353 98 262 345 176 110 106 115 173 191 24 232 172 323 206 286 259 296 340 164 333 122 242 113 259 60 291 118 351 357 340 332 279 310 320 85 126 203 208 112 77 72 135 124 53 280 206 220 259 265 265 268 337 334 316 312 310 309 309 311 309 308 309 309 308 308 311
289 268 248 300 353 73 217 192 148 198 281 287 333 326 327 352 215 211 168 268 93 165 86 292 219 168 69 156 88 129 209 139 290 263 159 195 244 327 301 147 237 233 215 233 193 120 27 216 111 330 334 348 342 341 316 287 220 239 214 285 158 139 131 102 65 58 164 288 161 210 263 257 305 317 302 310 312 310 309 311 312 307 306 309 307 311 315 318
11 126 301 338 6 31 88 81 106 141 124 249 2 273 127 296 344 327 126 288 171 57 126 229 0 83 67 61 35 21 238 355 145 251 106 277 289 310 212 328 204 233 243 212 155 118 180 74 155 156 181 256 234 228 235 109 66 163 231 150 224 121 120 103 93 115 210 219 225 237 256 290 298 307 312 313 316 313 316 321 322 322 321 319 318 318 316 314
251 77 351 341 341 40 106 9 67 54 261 152 166 190 250 221 274 334 91 65 12 148 53 43 231 54 295 70 174 36 256 283 354 99 235 206 251 245 303 255 292 206 348 52 92 81 67 347 262 193 220 237 279 245 185 164 148 196 146 242 210 160 163 146 169 230 154 350 270 235 238 270 297 302 305 308 309 310 313 314 315 314 316 317 321 320 318 318
29 271 108 203 140 249 40 296 76 9 272 100 251 6 228 131 30 290 331 103 1 16 121 339 41 50 182 189 136 95 335 317 8 249 329 229 330 324 358 344 42 310 350 51 6 146 143 253 278 114 270 308 297 244 165 147 161 174 192 196 212 174 154 180 226 239 164 192 247 263 278 284 287 290 292 292 294 302 307 306 302 303 304 311 313 315 314 315
132 252 215 285 229 247 180 241 358 152 251 190 269 172 273 160 243 219 169 325 23 330 75 272 289 259 208 127 111 185 158 62 308 289 201 256 177 329 355 336 265 9 91 38 21 134 87 254 247 187 286 348 347 9 175 148 127 109 219 228 220 158 209 216 247 241 189 235 251 271 280 276 274 281 284 286 293 298 299 297 300 306 309 308 310 312 312 313
326 50 309 358 72 270 257 9 76 59 317 199 167 252 173 188 197 284 314 151 309 296 35 142 245 248 187 162 137 150 215 185 190 239 239 155 310 134 235 194 263 327 48 84 136 287 99 276 199 145 351 335 346 11 21 57 88 249 271 269 262 226 258 252 255 284 272 295 269 265 276 282 269 253 266 282 294 296 299 305 308 306 307 314 317 315 315 318
196 174 148 68 352 279 349 29 31 122 165 298 158 264 101 204 232 192 235 177 167 201 199 211 211 157 44 160 185 237 230 199 197 213 195 158 214 222 139 288 161 290 357 42 54 326 48 273 55 71 348 312 343 345 329 11 6 327 299 299 284 260 272 244 200 221 159 243 267 291 289 292 295 291 286 291 295 304 307 309 311 311 312 316 322 321 323 323
106 310 86 106 251 278 207 5 35 90 256 222 164 245 173 241 212 134 336 290 245 202 181 187 202 138 285 148 240 234 239 203 217 222 210 209 210 185 204 188 167 186 232 20 242 287 156 96 338 20 345 265 300 17 353 356 317 289 267 232 213 226 235 286 271 223 217 181 263 257 275 273 285 306 316 310 314 311 310 313 313 309 317 324 325 322 319 316